Regional Weather Roundup
Issued by NWS Jackson, KY

Home | Current Version | Previous Version | Text Only | Print | Product List | Glossary On
Versions: 1 2 3 4 5 6 7 8 9 10 11 12 13 14 15 16 17 18 19 20 21 22 23 24 25 26 27 28 29 30 31 32 33 34 35 36 37 38 39 40 41 42 43 44 45 46 47 48 49 50
000
ASUS43 KJKL 290219
RWRJKL

EAST KENTUCKY HOURLY WEATHER ROUNDUP
NATIONAL WEATHER SERVICE JACKSON KY
900 PM EST SUN DEC 28 2014

NOTE: "FAIR" INDICATES FEW OR NO CLOUDS BELOW 12,000 FEET WITH
NO SIGNIFICANT WEATHER AND/OR OBSTRUCTIONS TO VISIBILITY.

* THESE REPORTS ARE NOT UNDER NWS QUALITY CONTROL AND MAY NOT
  REPORT WEATHER SUCH AS PRECIPITATION AND FOG.

KYZ079-080-083-085-087-088-110-112-115-119-120-290300
...EASTERN KENTUCKY...

CITY           SKY/WX    TMP DP  RH WIND       PRES   REMARKS
JACKSON        LGT RAIN  37  35  92 CALM      30.15S FOG
LONDON         LGT RAIN  41  36  82 NE5       30.15S
SOMERSET*      RAIN      37  37 100 E3        30.16F
MONTICELLO*    CLOUDY    39  39 100 CALM      30.17F FOG
MIDDLESBORO*   DRIZZLE   44  43  95 CALM      30.14S
HARLAN APT*    CLOUDY    43  43 100 N5        30.12S
HAZARD APT*    DRIZZLE   39  39 100 CALM      30.15
BLACK MTN*       N/A     41  41 100 CALM        N/A
PIKEVILLE APT* DRZL/FOG  39  39 100 N3        30.13F VSB 1
BIG SANDY*     RAIN      39  38  99 N5        30.15S
MOREHEAD APT*  CLOUDY    36  34  93 CALM      30.20S FOG
ASHLAND*       CLOUDY   N/A N/A N/A CALM      30.16F
$$

KYZ035-036-041-042-044-050-067-078-099-290300
...CENTRAL KENTUCKY...

CITY           SKY/WX    TMP DP  RH WIND       PRES   REMARKS
MT STERLING*   CLOUDY    34  32  93 N3        30.19S
FLEMING/MASON* MOCLDY    34  32  93 CALM      30.19S
DANVILLE*      FOG       34  34 100 N6        30.18S VSB 1/4 WCI  29
RICHMOND*      CLOUDY    36  34  93 NE3       30.16S
LEXINGTON      CLOUDY    34  31  88 N6        30.18S WCI  29
FRANKFORT      CLOUDY    34  30  85 CALM      30.19R
$$

KYZ091>093-OHZ055-061-077-WVZ005-015-034-035-042-290300
...SOUTHERN OHIO/WEST VIRGINIA...

CITY           SKY/WX    TMP DP  RH WIND       PRES   REMARKS
COVINGTON      CLOUDY    33  26  75 NW5       30.19R WCI  29
COLUMBUS       CLOUDY    34  28  79 N7        30.16S WCI  28
DAYTON         CLOUDY    31  28  89 NW5       30.18F WCI  26
WILMINGTON     CLOUDY    33  28  81 N3        30.17S
HUNTINGTON     CLOUDY    37  35  92 N3        30.17R FOG
CHARLESTON     LGT RAIN  38  36  92 CALM      30.16S
PINEVILLE*     DRIZZLE   45  44  99 MISG      30.16S
BECKLEY        LGT RAIN  40  38  93 N7        30.10S
BLUEFIELD      CLOUDY    46  42  86 W6        30.10R FOG
$$

VAZ002-007-008-TNZ017-027-036-066-071-290300
...SOUTHWEST VIRGINIA/EAST TENNESSEE...

CITY           SKY/WX    TMP DP  RH WIND       PRES   REMARKS
WISE*          DRIZZLE   43  43 100 N7        30.10F
JONESVILLE*    LGT RAIN  46  46 100 CALM      30.13S
ABINGDON*      DRZL/FOG  48  48 100 CALM      30.10S VSB 1/2
BRISTOL        FOG       48  47  96 CALM      30.10F VSB 1
KNOXVILLE      CLOUDY    50  49  96 CALM      30.11R FOG
OAK RIDGE      LGT RAIN  49  47  93 VRB3      30.12S
CROSSVILLE     LGT RAIN  43  40  89 NE5       30.11S
NASHVILLE      CLOUDY    38  36  92 N5        30.16F FOG     WCI  34
$$

...KEY TO REMARKS...
VSB - VISIBILITY IN MILES
WCI - WIND CHILL INDEX
HX  - HEAT INDEX

$$



USA.gov is the U.S. government's official web portal to all federal, state and local government web resources and services.